Weather History for KVLL - April, 2013

Change the Weather History Date:

Tuesday, April 9, 2013

  Actual Average (KDET) Record (KDET)
Temperature  
Mean Temperature 44 °F -  
Max Temperature 48 °F 52 °F 74 °F (1991)
Min Temperature 41 °F 34 °F 22 °F (1950)
Degree Days  
Heating Degree Days 20    
Moisture  
Dew Point 42 °F    
Average Humidity 90    
Maximum Humidity 97    
Minimum Humidity 79    
Precipitation  
Precipitation 0.00 in - - ()
Sea Level Pressure  
Sea Level Pressure 30.03 in    
Wind  
Wind Speed 8 mph (NE)    
Max Wind Speed 17 mph    
Max Gust Speed 23 mph    
Visibility 7 miles    
Events Rain    
Averages and records for this station are not official NWS values.
T = Trace of Precipitation, MM = Missing Value Source: NWS Daily Summary

Daily Weather History Graph

Daily Weather History Graph

Search for Another Location

Airport or City:

Trip Planner

Search our weather history database for the weather conditions in past years. The results will help you decide how hot, cold, wet, or windy it might be!

Date:

Astronomy

Apr. 09, 2013 Rise Set
Actual Time 7:01 AM EDT 8:08 PM EDT
Civil Twilight 6:32 AM EDT 8:37 PM EDT
Nautical Twilight 5:57 AM EDT 9:11 PM EDT
Astronomical Twilight 5:21 AM EDT 9:48 PM EDT
Moon 6:23 AM EDT (4/9) 7:42 PM EDT (4/9)
Length of Visible Light 14h 04m
Length of Day
13h 07m
Waning Crescent, 1% of the Moon is Illuminated
Apr 9
Waning Crescent
Apr 10
New
Apr 18
First Quarter
Apr 25
Full
May 2
Last Quarter

Hourly Weather History & Observations

Time (EDT) Temp. Windchill Dew Point Humidity Pressure Visibility Wind Dir Wind Speed Gust Speed Precip Events Conditions
12:15 AM 48.2 °F - 43.2 °F 83% 29.97 in 10.0 mi WNW 10.4 mph 21.9 mph N/A   Scattered Clouds
12:34 AM 47.7 °F - 42.8 °F 83% 29.98 in 10.0 mi WNW 15.0 mph 20.7 mph N/A   Clear
12:55 AM 47.5 °F - 42.6 °F 83% 30.00 in 10.0 mi NW 11.5 mph 23.0 mph N/A   Scattered Clouds
1:15 AM 47.3 °F - 42.4 °F 83% 30.02 in 10.0 mi WNW 15.0 mph 20.7 mph N/A   Mostly Cloudy
1:34 AM 46.9 °F - 42.4 °F 84% 30.04 in 10.0 mi NW 17.3 mph 20.7 mph N/A   Overcast
2:15 AM 46.0 °F 40.6 °F 41.4 °F 84% 30.04 in 10.0 mi NW 11.5 mph 21.9 mph N/A   Overcast
2:35 AM 45.5 °F 41.3 °F 41.2 °F 85% 30.05 in 10.0 mi NW 8.1 mph - N/A   Mostly Cloudy
2:55 AM 45.0 °F 40.1 °F 41.0 °F 86% 30.05 in 10.0 mi NNW 9.2 mph 16.1 mph N/A   Mostly Cloudy
3:15 AM 44.1 °F 38.1 °F 40.8 °F 88% 30.05 in 10.0 mi North 11.5 mph 18.4 mph N/A   Mostly Cloudy
3:35 AM 43.0 °F 38.8 °F 40.1 °F 90% 30.05 in 10.0 mi North 6.9 mph 17.3 mph N/A   Overcast
3:55 AM 42.8 °F 41.1 °F 39.7 °F 89% 30.07 in 10.0 mi North 3.5 mph - N/A   Overcast
4:14 AM 42.3 °F 37.3 °F 39.6 °F 90% 30.07 in 10.0 mi NNW 8.1 mph - N/A   Overcast
4:35 AM 42.4 °F - 39.7 °F 90% 30.08 in 10.0 mi Calm Calm - N/A   Overcast
4:55 AM 42.1 °F 39.2 °F 39.4 °F 90% 30.07 in 10.0 mi North 4.6 mph - N/A   Overcast
5:14 AM 41.2 °F 38.2 °F 39.2 °F 93% 30.07 in 10.0 mi NNW 4.6 mph - N/A   Overcast
5:35 AM 41.4 °F - 39.4 °F 93% 30.09 in 10.0 mi Calm Calm - N/A   Overcast
5:55 AM 42.1 °F - 39.6 °F 91% 30.10 in 10.0 mi Calm Calm - N/A   Overcast
6:15 AM 42.6 °F - 39.6 °F 89% 30.11 in 10.0 mi Calm Calm - N/A   Overcast
6:35 AM 41.4 °F - 39.0 °F 91% 30.12 in 10.0 mi Calm Calm - N/A   Overcast
6:54 AM 41.4 °F - 39.2 °F 92% 30.12 in 10.0 mi Calm Calm - N/A   Overcast
7:15 AM 41.5 °F - 39.4 °F 92% 30.12 in 10.0 mi Calm Calm - N/A   Overcast
7:34 AM 41.5 °F 38.6 °F 39.6 °F 93% 30.12 in 7.0 mi East 4.6 mph - N/A   Overcast
7:54 AM 41.9 °F 36.9 °F 39.7 °F 92% 30.12 in 7.0 mi ENE 8.1 mph - N/A   Overcast
8:15 AM 41.9 °F 37.5 °F 39.4 °F 91% 30.12 in 10.0 mi East 6.9 mph - N/A   Overcast
8:35 AM 41.2 °F 36.6 °F 38.8 °F 91% 30.13 in 7.0 mi East 6.9 mph - N/A   Overcast
8:55 AM 41.0 °F 35.8 °F 39.2 °F 93% 30.13 in 5.0 mi East 8.1 mph - N/A   Overcast
9:15 AM 41.7 °F 37.3 °F 39.4 °F 91% 30.12 in 5.0 mi East 6.9 mph - N/A   Overcast
9:35 AM 41.9 °F 36.3 °F 39.4 °F 91% 30.11 in 5.0 mi East 9.2 mph - N/A   Overcast
9:55 AM 41.9 °F 39.0 °F 39.6 °F 91% 30.11 in 5.0 mi ESE 4.6 mph - N/A   Overcast
10:15 AM 42.1 °F 37.1 °F 39.6 °F 91% 30.10 in 5.0 mi East 8.1 mph - N/A   Overcast
10:35 AM 42.8 °F 39.3 °F 39.6 °F 88% 30.11 in 5.0 mi East 5.8 mph - N/A   Overcast
10:55 AM 43.7 °F 39.7 °F 39.9 °F 87% 30.10 in 4.0 mi East 6.9 mph - N/A   Overcast
11:15 AM 44.6 °F 42.2 °F 40.1 °F 84% 30.11 in 5.0 mi SE 4.6 mph - N/A   Haze
11:35 AM 45.9 °F 41.7 °F 40.5 °F 81% 30.11 in 5.0 mi SE 8.1 mph - N/A   Haze
11:55 AM 47.1 °F - 40.8 °F 79% 30.10 in 5.0 mi SSE 8.1 mph - N/A   Haze
12:14 PM 46.4 °F - 40.8 °F 81% 30.11 in 5.0 mi Calm Calm - N/A   Haze
12:35 PM 45.7 °F 41.0 °F 41.2 °F 84% 30.05 in 4.0 mi East 9.2 mph - N/A Rain Light Rain
12:54 PM 46.0 °F 44.8 °F 42.6 °F 88% 30.05 in 4.0 mi ESE 3.5 mph - N/A Rain Light Rain
1:15 PM 45.9 °F 42.9 °F 42.3 °F 87% 30.05 in 5.0 mi East 5.8 mph - N/A   Mostly Cloudy
1:35 PM 46.0 °F 42.5 °F 42.8 °F 88% 30.04 in 7.0 mi East 6.9 mph - N/A   Overcast
1:54 PM 45.9 °F 42.3 °F 42.8 °F 89% 30.03 in 7.0 mi NE 6.9 mph - N/A   Overcast
2:15 PM 45.1 °F 40.3 °F 42.4 °F 90% 30.01 in 7.0 mi ENE 9.2 mph - N/A   Overcast
2:35 PM 44.8 °F 39.9 °F 42.3 °F 91% 30.01 in 7.0 mi East 9.2 mph - N/A   Overcast
2:55 PM 44.6 °F 39.7 °F 42.4 °F 92% 29.98 in 5.0 mi East 9.2 mph - N/A   Overcast
3:15 PM 45.5 °F 43.2 °F 43.2 °F 92% 29.98 in 5.0 mi ESE 4.6 mph - N/A   Overcast
3:34 PM 45.9 °F 44.6 °F 43.0 °F 90% 29.96 in 7.0 mi East 3.5 mph - N/A   Overcast
3:55 PM 46.4 °F 42.9 °F 43.0 °F 88% 29.95 in 7.0 mi East 6.9 mph - N/A   Overcast
4:15 PM 47.3 °F - 43.5 °F 87% 29.95 in 7.0 mi East 3.5 mph - N/A   Overcast
4:35 PM 47.5 °F - 43.5 °F 86% 29.94 in 10.0 mi ENE 5.8 mph - N/A Rain Light Rain
4:55 PM 48.2 °F - 44.4 °F 87% 29.95 in 10.0 mi North 10.4 mph - N/A   Overcast
5:15 PM 47.5 °F - 44.6 °F 90% 29.94 in 7.0 mi NNE 6.9 mph - N/A   Overcast
5:35 PM 46.6 °F - 44.2 °F 92% 29.94 in 5.0 mi NNE 8.1 mph - N/A   Overcast
5:55 PM 46.4 °F 42.4 °F 44.1 °F 92% 29.93 in 4.0 mi NE 8.1 mph - N/A Rain Light Rain
6:15 PM 46.4 °F 42.4 °F 44.4 °F 93% 29.93 in 3.0 mi NE 8.1 mph - N/A   Overcast
6:35 PM 46.2 °F 42.2 °F 44.2 °F 93% 29.92 in 1.8 mi ENE 8.1 mph - N/A Rain Light Rain
6:55 PM 46.4 °F 42.9 °F 44.6 °F 93% 29.92 in 2.0 mi East 6.9 mph - N/A   Overcast
7:14 PM 46.4 °F 45.2 °F 45.0 °F 95% 29.95 in 2.0 mi North 3.5 mph - N/A Rain Light Rain
7:35 PM 46.4 °F 44.3 °F 45.0 °F 95% 29.94 in 1.5 mi ENE 4.6 mph - N/A Rain Light Rain
7:55 PM 46.4 °F 42.9 °F 45.0 °F 95% 29.92 in 1.8 mi East 6.9 mph - N/A Rain Light Rain
8:14 PM 46.4 °F 44.3 °F 45.1 °F 95% 29.93 in 2.5 mi ENE 4.6 mph - N/A   Mostly Cloudy
8:35 PM 46.0 °F 43.9 °F 45.0 °F 96% 29.93 in 3.0 mi ENE 4.6 mph - N/A   Overcast
8:54 PM 46.4 °F 44.3 °F 45.1 °F 95% 29.94 in 3.0 mi NNE 4.6 mph - N/A   Overcast
9:15 PM 46.4 °F 42.4 °F 45.3 °F 96% 29.98 in 5.0 mi NNW 8.1 mph - N/A   Overcast
9:35 PM 46.8 °F - 45.9 °F 97% 30.00 in 0.5 mi North 12.7 mph - N/A   Unknown
9:55 PM 47.1 °F - 46.4 °F 97% 29.96 in 3.0 mi NE 10.4 mph - N/A Rain Light Rain
10:14 PM 47.3 °F - 46.4 °F 97% 29.96 in 4.0 mi NE 9.2 mph - N/A   Overcast
10:55 PM 46.4 °F 43.5 °F 45.1 °F 95% 30.00 in 10.0 mi NE 5.8 mph - N/A   Overcast
11:14 PM 44.1 °F 40.1 °F 42.8 °F 95% 30.01 in 10.0 mi NNE 6.9 mph - N/A   Overcast
11:35 PM 42.8 °F 38.6 °F 41.4 °F 95% 30.01 in 10.0 mi NNE 6.9 mph - N/A   Overcast
11:54 PM 42.4 °F 38.8 °F 41.0 °F 95% 30.02 in 10.0 mi North 5.8 mph - N/A   Overcast